Time,TemperatureF,DewpointF,PressureIn,WindDirection,WindDirectionDegrees,WindSpeedMPH,WindSpeedGustMPH,Humidity,HourlyPrecipIn,Conditions,Clouds,dailyrainin,SolarRadiationWatts/m^2,SoftwareType,DateUTC
2013-09-21 00:42:00,44.0,37.0,-100.00,East,89,0.0,3.0,76,-99.99,,,0.00,0.000000,,2013-09-21 07:42:00,
2013-09-21 09:02:00,55.0,41.0,-100.00,SSW,213,5.0,12.0,60,-99.99,,,0.00,131.000000,,2013-09-21 16:02:00,
2013-09-21 09:24:00,55.0,41.0,-100.00,SSW,213,5.0,12.0,60,-99.99,,,0.00,131.000000,,2013-09-21 16:24:00,
2013-09-21 09:34:00,55.0,41.0,-100.00,SSW,213,5.0,12.0,60,-99.99,,,0.00,131.000000,,2013-09-21 16:34:00,
2013-09-21 09:43:00,55.0,41.0,-100.00,SSW,213,5.0,12.0,60,-99.99,,,0.00,131.000000,,2013-09-21 16:43:00,
2013-09-21 09:54:00,55.0,41.0,-100.00,SSW,213,5.0,12.0,60,-99.99,,,0.00,131.000000,,2013-09-21 16:54:00,
2013-09-21 10:02:00,53.0,45.0,-100.00,SW,229,3.0,14.0,74,0.01,,,0.01,223.000000,,2013-09-21 17:02:00,
2013-09-21 10:43:00,53.0,45.0,-100.00,SW,229,3.0,14.0,74,0.01,,,0.01,223.000000,,2013-09-21 17:43:00,
2013-09-21 10:52:00,53.0,45.0,-100.00,SW,229,3.0,14.0,74,0.01,,,0.01,223.000000,,2013-09-21 17:52:00,
2013-09-21 11:02:00,50.0,47.0,-100.00,SW,231,1.0,13.0,88,0.07,,,0.08,86.000000,,2013-09-21 18:02:00,
2013-09-21 11:22:00,50.0,47.0,-100.00,SW,231,1.0,13.0,88,0.07,,,0.08,86.000000,,2013-09-21 18:22:00,
2013-09-21 11:32:00,50.0,47.0,-100.00,SW,231,1.0,13.0,88,0.07,,,0.08,86.000000,,2013-09-21 18:32:00,
2013-09-21 11:42:00,50.0,47.0,-100.00,SW,231,1.0,13.0,88,0.07,,,0.08,86.000000,,2013-09-21 18:42:00,
2013-09-21 11:52:00,50.0,47.0,-100.00,SW,231,1.0,13.0,88,0.07,,,0.08,86.000000,,2013-09-21 18:52:00,
2013-09-21 12:42:00,51.0,47.0,-100.00,SW,221,3.0,13.0,85,0.03,,,0.11,99.000000,,2013-09-21 19:42:00,
2013-09-21 12:52:00,51.0,47.0,-100.00,SW,221,3.0,13.0,85,0.03,,,0.11,99.000000,,2013-09-21 19:52:00,
2013-09-21 13:01:00,51.0,47.0,-100.00,SW,221,3.0,13.0,85,0.03,,,0.11,99.000000,,2013-09-21 20:01:00,
2013-09-21 13:02:00,48.0,47.0,-100.00,East,98,2.0,13.0,96,0.18,,,0.29,67.000000,,2013-09-21 20:02:00,
2013-09-21 13:22:00,48.0,47.0,-100.00,East,98,2.0,13.0,96,0.18,,,0.29,67.000000,,2013-09-21 20:22:00,
2013-09-21 13:32:00,48.0,47.0,-100.00,East,98,2.0,13.0,96,0.18,,,0.29,67.000000,,2013-09-21 20:32:00,
2013-09-21 13:42:00,48.0,47.0,-100.00,East,98,2.0,13.0,96,0.18,,,0.29,67.000000,,2013-09-21 20:42:00,
2013-09-21 13:52:00,48.0,47.0,-100.00,East,98,2.0,13.0,96,0.18,,,0.29,67.000000,,2013-09-21 20:52:00,
2013-09-21 14:02:00,49.0,45.0,-100.00,South,186,3.0,15.0,87,0.09,,,0.38,192.000000,,2013-09-21 21:02:00,
2013-09-21 14:22:00,49.0,45.0,-100.00,South,186,3.0,15.0,87,0.09,,,0.38,192.000000,,2013-09-21 21:22:00,
2013-09-21 14:34:00,49.0,45.0,-100.00,South,186,3.0,15.0,87,0.09,,,0.38,192.000000,,2013-09-21 21:34:00,
2013-09-21 14:45:00,49.0,45.0,-100.00,South,186,3.0,15.0,87,0.09,,,0.38,192.000000,,2013-09-21 21:45:00,
2013-09-21 14:54:00,49.0,45.0,-100.00,South,186,3.0,15.0,87,0.09,,,0.38,192.000000,,2013-09-21 21:54:00,
2013-09-21 15:02:00,45.0,43.0,-100.00,North,355,2.0,13.0,94,0.06,,,0.44,172.000000,,2013-09-21 22:02:00,
2013-09-21 15:24:00,45.0,43.0,-100.00,North,355,2.0,13.0,94,0.06,,,0.44,172.000000,,2013-09-21 22:24:00,
2013-09-21 15:33:00,45.0,43.0,-100.00,North,355,2.0,13.0,94,0.06,,,0.44,172.000000,,2013-09-21 22:33:00,
2013-09-21 15:43:00,45.0,43.0,-100.00,North,355,2.0,13.0,94,0.06,,,0.44,172.000000,,2013-09-21 22:43:00,
2013-09-21 15:53:00,45.0,43.0,-100.00,North,355,2.0,13.0,94,0.06,,,0.44,172.000000,,2013-09-21 22:53:00,
2013-09-21 16:42:00,42.0,41.0,-100.00,NW,311,2.0,12.0,97,0.17,,,0.61,63.000000,,2013-09-21 23:42:00,
2013-09-21 16:52:00,42.0,41.0,-100.00,NW,311,2.0,12.0,97,0.17,,,0.61,63.000000,,2013-09-21 23:52:00,
2013-09-21 17:01:00,42.0,41.0,-100.00,NW,311,2.0,12.0,97,0.17,,,0.61,63.000000,,2013-09-22 00:01:00,
2013-09-21 17:02:00,41.0,40.0,-100.00,SSE,148,2.0,9.0,96,0.14,,,0.75,34.000000,,2013-09-22 00:02:00,
2013-09-21 17:23:00,41.0,40.0,-100.00,SSE,148,2.0,9.0,96,0.14,,,0.75,34.000000,,2013-09-22 00:23:00,
2013-09-21 17:32:00,41.0,40.0,-100.00,SSE,148,2.0,9.0,96,0.14,,,0.75,34.000000,,2013-09-22 00:32:00,
2013-09-21 17:43:00,41.0,40.0,-100.00,SSE,148,2.0,9.0,96,0.14,,,0.75,34.000000,,2013-09-22 00:43:00,
2013-09-21 17:52:00,41.0,40.0,-100.00,SSE,148,2.0,9.0,96,0.14,,,0.75,34.000000,,2013-09-22 00:52:00,
2013-09-21 18:02:00,38.0,37.0,-100.00,SSE,149,2.0,7.0,97,0.20,,,0.95,10.000000,,2013-09-22 01:02:00,
2013-09-21 18:42:00,38.0,37.0,-100.00,SSE,149,2.0,7.0,97,0.20,,,0.95,10.000000,,2013-09-22 01:42:00,
2013-09-21 18:52:00,38.0,37.0,-100.00,SSE,149,2.0,7.0,97,0.20,,,0.95,10.000000,,2013-09-22 01:52:00,
2013-09-21 19:02:00,34.0,33.0,-100.00,South,170,2.0,6.0,97,0.20,,,1.15,2.000000,,2013-09-22 02:02:00,
2013-09-21 19:42:00,34.0,33.0,-100.00,South,170,2.0,6.0,97,0.20,,,1.15,2.000000,,2013-09-22 02:42:00,
2013-09-21 19:52:00,34.0,33.0,-100.00,South,170,2.0,6.0,97,0.20,,,1.15,2.000000,,2013-09-22 02:52:00,
2013-09-21 20:02:00,-999.0,-99.9,-100.00,NE,36,1.0,4.0,-999,-99.99,,,-99.99,0.000000,,2013-09-22 03:02:00,
2013-09-21 20:22:00,35.0,35.0,-100.00,NE,36,1.0,4.0,99,0.02,,,1.17,0.000000,,2013-09-22 03:22:00,
2013-09-21 20:34:00,35.0,35.0,-100.00,NE,36,1.0,4.0,99,0.02,,,1.17,0.000000,,2013-09-22 03:34:00,
2013-09-21 20:45:00,35.0,35.0,-100.00,NE,36,1.0,4.0,99,0.02,,,1.17,0.000000,,2013-09-22 03:45:00,
2013-09-21 20:54:00,35.0,35.0,-100.00,NE,36,1.0,4.0,99,0.02,,,1.17,0.000000,,2013-09-22 03:54:00,
2013-09-21 21:02:00,35.0,35.0,-100.00,East,92,0.0,3.0,99,0.00,,,1.17,0.000000,,2013-09-22 04:02:00,
2013-09-21 21:23:00,35.0,35.0,-100.00,East,92,0.0,3.0,99,0.00,,,1.17,0.000000,,2013-09-22 04:23:00,
2013-09-21 21:33:00,35.0,35.0,-100.00,East,92,0.0,3.0,99,0.00,,,1.17,0.000000,,2013-09-22 04:33:00,
2013-09-21 21:44:00,35.0,35.0,-100.00,East,92,0.0,3.0,99,0.00,,,1.17,0.000000,,2013-09-22 04:44:00,
2013-09-21 21:54:00,35.0,35.0,-100.00,East,92,0.0,3.0,99,0.00,,,1.17,0.000000,,2013-09-22 04:54:00,
2013-09-21 22:02:00,35.0,35.0,-100.00,SSW,200,0.0,4.0,99,0.00,,,1.17,0.000000,,2013-09-22 05:02:00,
2013-09-21 22:23:00,35.0,35.0,-100.00,SSW,200,0.0,4.0,99,0.00,,,1.17,0.000000,,2013-09-22 05:23:00,
2013-09-21 22:34:00,35.0,35.0,-100.00,SSW,200,0.0,4.0,99,0.00,,,1.17,0.000000,,2013-09-22 05:34:00,
2013-09-21 22:43:00,35.0,35.0,-100.00,SSW,200,0.0,4.0,99,0.00,,,1.17,0.000000,,2013-09-22 05:43:00,
2013-09-21 22:53:00,35.0,35.0,-100.00,SSW,200,0.0,4.0,99,0.00,,,1.17,0.000000,,2013-09-22 05:53:00,
2013-09-21 23:02:00,36.0,36.0,-100.00,East,98,0.0,4.0,99,0.00,,,1.17,0.000000,,2013-09-22 06:02:00,
2013-09-21 23:22:00,36.0,36.0,-100.00,East,98,0.0,4.0,99,0.00,,,1.17,0.000000,,2013-09-22 06:22:00,
2013-09-21 23:32:00,36.0,36.0,-100.00,East,98,0.0,4.0,99,0.00,,,1.17,0.000000,,2013-09-22 06:32:00,
2013-09-21 23:42:00,36.0,36.0,-100.00,East,98,0.0,4.0,99,0.00,,,1.17,0.000000,,2013-09-22 06:42:00,
2013-09-21 23:52:00,36.0,36.0,-100.00,East,98,0.0,4.0,99,0.00,,,1.17,0.000000,,2013-09-22 06:52:00,